TimeCDT,TemperatureF,Dew PointF,Humidity,Sea Level PressureIn,VisibilityMPH,Wind Direction,Wind SpeedMPH,Gust SpeedMPH,PrecipitationIn,Events,Conditions,WindDirDegrees,DateUTC
12:53 AM,75.0,70.0,84,29.96,10.0,Calm,Calm,-,N/A,,Clear,0,2013-07-25 05:53:00
1:53 AM,73.9,70.0,87,29.96,10.0,Calm,Calm,-,N/A,,Clear,0,2013-07-25 06:53:00
2:53 AM,71.1,69.1,93,29.96,10.0,Calm,Calm,-,N/A,,Clear,0,2013-07-25 07:53:00
3:53 AM,71.1,69.1,93,29.97,10.0,Calm,Calm,-,N/A,,Clear,0,2013-07-25 08:53:00
4:53 AM,70.0,68.0,93,29.98,9.0,Calm,Calm,-,N/A,,Clear,0,2013-07-25 09:53:00
5:53 AM,71.1,69.1,93,30.00,9.0,Calm,Calm,-,N/A,,Clear,0,2013-07-25 10:53:00
6:53 AM,71.1,69.1,93,30.01,8.0,Calm,Calm,-,N/A,,Clear,0,2013-07-25 11:53:00
7:53 AM,75.9,72.0,87,30.03,10.0,Calm,Calm,-,N/A,,Mostly Cloudy,0,2013-07-25 12:53:00
8:53 AM,80.1,70.0,71,30.04,10.0,Calm,Calm,-,N/A,,Clear,0,2013-07-25 13:53:00
9:53 AM,82.9,70.0,65,30.04,10.0,NE,4.6,-,N/A,,Clear,40,2013-07-25 14:53:00
10:53 AM,86.0,69.1,57,30.05,10.0,SSE,4.6,-,N/A,,Clear,150,2013-07-25 15:53:00
11:53 AM,87.1,69.1,55,30.05,10.0,Variable,3.5,-,N/A,,Partly Cloudy,0,2013-07-25 16:53:00
12:53 PM,91.0,69.1,48,30.05,10.0,Variable,4.6,-,N/A,,Partly Cloudy,0,2013-07-25 17:53:00
1:53 PM,89.1,69.1,52,30.04,10.0,SE,4.6,-,N/A,,Overcast,140,2013-07-25 18:53:00
2:53 PM,91.9,70.0,48,30.03,10.0,ESE,5.8,-,N/A,,Partly Cloudy,110,2013-07-25 19:53:00
3:53 PM,91.9,68.0,45,30.02,10.0,ESE,5.8,-,N/A,,Scattered Clouds,120,2013-07-25 20:53:00
4:53 PM,88.0,71.1,57,30.02,10.0,ENE,6.9,-,N/A,,Scattered Clouds,60,2013-07-25 21:53:00
5:53 PM,87.1,72.0,61,30.01,10.0,ENE,5.8,-,N/A,,Clear,60,2013-07-25 22:53:00
6:53 PM,87.1,71.1,59,29.99,10.0,East,4.6,-,N/A,,Partly Cloudy,100,2013-07-25 23:53:00
7:53 PM,84.9,71.1,63,30.00,10.0,ENE,4.6,-,N/A,,Clear,70,2013-07-26 00:53:00
8:53 PM,82.9,72.0,69,29.99,10.0,East,3.5,-,N/A,,Clear,80,2013-07-26 01:53:00
9:53 PM,81.0,72.0,74,30.01,10.0,East,3.5,-,N/A,,Clear,100,2013-07-26 02:53:00
10:53 PM,80.1,71.1,74,30.03,10.0,East,3.5,-,N/A,,Clear,90,2013-07-26 03:53:00
11:53 PM,79.0,70.0,74,30.03,10.0,East,3.5,-,N/A,,Clear,100,2013-07-26 04:53:00